GALAXY 30 (G-30)

Last updated on Fri Oct 04 2024 00:02:42 GMT+0000 (Coordinated Universal Time)

1 46114U 20056C 24276.70674382 .00000039 00000+0 00000+0 0 9997 2 46114 0.0208 175.6158 0002272 18.5049 307.2096 1.00270306 15058
UTC large
Height (km)
Speed (km/s)
/
Latitude / Longitude
Inclination (degrees)
Orbital Period (minutes)
Azimuth
Elevation
Range (km)
Doppler Factor

Next 0 passes for location: London (51.5072 / 0.1276)

Sorry there are no passes over London.